Location: Tucson
(32.2217°N, 110.9265°W)
Time: 19:14:01
(UTC-07:00)

A-11 Canister half - Pass Details

Date: 28 October 2021
Orbit: 1516 x 1684 km, 47.2° (Epoch: 28 November)

Event Time Altitude Azimuth Distance (km) Brightness Sun altitude
Rises 22:17:21 0° 306° (NW) 4,880 12.1 -58.7°
Reaches altitude 10° 22:20:41 10° 311° (NW) 3,871 11.4 -59.3°
Enters shadow 22:22:42 18° 316° (NW) 3,286 10.9 -59.6°
